Location: Champs
(48.8539°N, 2.6040°E)
Time: 18:43:58
(UTC+00:00)

DMSP 5D-2 F13 DEB - Pass Details

Date: 12 August 2022
Orbit: 710 x 775 km, 98.8° (Epoch: 23 September)

Event Time Altitude Azimuth Distance (km) Brightness Sun altitude
Exits shadow 21:28:11 13° 84° (E) 2,110 ? -18.6°
Maximum altitude 21:30:25 17° 55° (NE) 1,892 ? -18.8°
Drops below altitude 10° 21:33:37 10° 16° (NNE) 2,340 ? -19.1°
Sets 21:36:42 0° 357° (N) 3,277 ? -19.4°
